Weather in Rybnoye

Russia / Saratov Oblast     51°59′13″N   47°14′41″E
temp.,
°C
wind,
m/s
gust,
m/s
humid.,
%
clouds,
%
prec.,
mm/h
press.,
hPa
HPBL,
m
17 may, mon
mon1701:00+21e224693 0.0 101516
04:00+18ese225557 0.0 101611
07:00+21se225651 0.0 101737
10:00+27se343514 0.0 1017492
13:00+30se57246 0.0 10162958
16:00+30sse572212 0.0 10153267
19:00+26se36405 0.0 1015107
22:00+21e22415 0.0 101513
18 may, tue
tue1801:00+19e33405 0.0 101524
04:00+17ene35450 0.0 101566
07:00+18ene410525 0.0 1015212
10:00+25ese68360 0.0 1014487
13:00+31se58230 0.0 10141779
16:00+31ese68235 0.0 10133774
19:00+27ese410388 0.0 1013212
22:00+21e414410 0.0 1013212
19 may, wed
wed1901:00+20e412416 0.0 1012195
04:00+18ene49474 0.0 1012137
07:00+19e512535 0.0 1012280
10:00+25e710424 0.0 1012497
13:00+30ese78310 0.0 10122573
16:00+30ese792918 0.0 10113721
19:00+25e51244100 0.1 1011380
22:00+22e716510 0.2 1011587
20 may, thu
thu2001:00+19e5156873 0.3 1011485
04:00+16ese4107772 0.4 1013255
07:00+18ese6117867 0.3 1012843
10:00+21se7865100 0.3 10121165
13:00+19s5878100 1.7 1012719
16:00+15ssw1392100 12.6 1012215
19:00+17ene1187100 1.9 1012140
22:00+14ene3393100 3.7 101372
21 may, fri
fri2101:00+14sw228899 0.1 101333
04:00+12sw22910 0.1 101416
07:00+14wsw348410 0.0 1016213
10:00+18sw45670 0.0 1017996
13:00+21sw575264 0.0 10171716
16:00+22sw4647100 0.0 10171636
19:00+21ssw3660100 0.0 1017150
22:00+18se3261100 0.0 101726